Change the Weather History Date:

Saturday, August 23, 2014

  Actual Average Record
Temperature  
Mean Temperature 55 °F -  
Max Temperature 64 °F 66 °F 77 °F (1963)
Min Temperature 46 °F 43 °F 31 °F (1974)
Degree Days  
Heating Degree Days 10    
Growing Degree Days 5 (Base 50)    
Moisture  
Dew Point 47 °F    
Average Humidity 71    
Maximum Humidity 87    
Minimum Humidity 52    
Precipitation  
Precipitation 0.00 in - - ()
Sea Level Pressure  
Sea Level Pressure 30.13 in    
Wind  
Wind Speed 1 mph (SSW)    
Max Wind Speed 7 mph    
Max Gust Speed -    
Visibility 10 miles    
Events      
Averages and records for this station are not official NWS values.
T = Trace of Precipitation, MM = Missing Value Source: NWS Daily Summary

Daily Weather History Graph

Daily Weather History Graph

Search for Another Location

Airport or City:

Trip Planner

Search our weather history database for the weather conditions in past years. The results will help you decide how hot, cold, wet, or windy it might be!

Date:

Astronomy

Aug. 23, 2014 Rise Set
Actual Time 6:26 AM AKDT 9:33 PM AKDT
Civil Twilight 5:34 AM AKDT 10:24 PM AKDT
Nautical Twilight 4:21 AM AKDT 11:35 PM AKDT
Astronomical Twilight 2:33 AM AKDT 1:28 AM AKDT
Moon 4:41 AM AKDT (8/23) 8:24 PM AKDT (8/23)
Length of Visible Light 16h 49m
Length of Day
15h 07m
Waning Crescent, 3% of the Moon is Illuminated
Aug 23
Waning Crescent
Aug 25
New
Sep 2
First Quarter
Sep 8
Full
Sep 15
Last Quarter

Hourly Weather History & Observations

Time (AKDT) Temp. Dew Point Humidity Pressure Visibility Wind Dir Wind Speed Gust Speed Precip Events Conditions
12:16 AM 51.8 °F 44.6 °F 76% 30.21 in 10.0 mi Calm Calm - N/A   Clear
12:36 AM 50.0 °F 42.8 °F 76% 30.21 in 10.0 mi Calm Calm - N/A   Clear
12:56 AM 50.0 °F 44.6 °F 82% 30.21 in 10.0 mi Calm Calm - N/A   Clear
1:16 AM 48.2 °F 42.8 °F 82% 30.21 in 9.0 mi Calm Calm - N/A   Clear
1:36 AM 48.2 °F 41.0 °F 76% 30.22 in 10.0 mi Calm Calm - N/A   Clear
1:56 AM 48.2 °F 42.8 °F 82% 30.22 in 9.0 mi Calm Calm - N/A   Clear
2:16 AM 48.2 °F 41.0 °F 76% 30.22 in 10.0 mi Calm Calm - N/A   Clear
2:36 AM 48.2 °F 42.8 °F 82% 30.23 in 10.0 mi Calm Calm - N/A   Scattered Clouds
2:56 AM 46.4 °F 42.8 °F 87% 30.23 in 7.0 mi Calm Calm - N/A   Overcast
3:16 AM 48.2 °F 42.8 °F 82% 30.23 in 10.0 mi Calm Calm - N/A   Overcast
3:36 AM 48.2 °F 42.8 °F 82% 30.23 in 10.0 mi Calm Calm - N/A   Overcast
3:56 AM 50.0 °F 42.8 °F 76% 30.23 in 10.0 mi Calm Calm - N/A   Overcast
4:16 AM 48.2 °F 41.0 °F 76% 30.23 in 9.0 mi Calm Calm - N/A   Overcast
4:36 AM 48.2 °F 42.8 °F 82% 30.23 in 10.0 mi Calm Calm - N/A   Mostly Cloudy
4:56 AM 48.2 °F 42.8 °F 82% 30.22 in 9.0 mi Calm Calm - N/A   Scattered Clouds
5:16 AM 48.2 °F 42.8 °F 82% 30.21 in 10.0 mi Calm Calm - N/A   Clear
5:36 AM 48.2 °F 42.8 °F 82% 30.20 in 10.0 mi East 3.5 mph - N/A   Clear
5:56 AM 48.2 °F 42.8 °F 82% 30.20 in 10.0 mi Calm Calm - N/A   Clear
6:16 AM 48.2 °F 42.8 °F 82% 30.20 in 10.0 mi Calm Calm - N/A   Clear
6:36 AM 48.2 °F 41.0 °F 76% 30.20 in 10.0 mi Calm Calm - N/A   Clear
6:56 AM 48.2 °F 41.0 °F 76% 30.20 in 10.0 mi Calm Calm - N/A   Clear
7:16 AM 48.2 °F 42.8 °F 82% 30.20 in 10.0 mi Calm Calm - N/A   Clear
7:36 AM 46.4 °F 41.0 °F 81% 30.20 in 10.0 mi Calm Calm - N/A   Clear
7:56 AM 48.2 °F 41.0 °F 76% 30.20 in 10.0 mi Calm Calm - N/A   Clear
8:16 AM 48.2 °F 41.0 °F 76% 30.20 in 10.0 mi Calm Calm - N/A   Clear
8:36 AM 48.2 °F 42.8 °F 82% 30.20 in 10.0 mi Calm Calm - N/A   Clear
8:56 AM 53.6 °F 44.6 °F 72% 30.19 in 10.0 mi Calm Calm - N/A   Clear
9:16 AM 53.6 °F 44.6 °F 72% 30.18 in 10.0 mi Calm Calm - N/A   Clear
9:36 AM 55.4 °F 44.6 °F 67% 30.18 in 10.0 mi Calm Calm - N/A   Clear
9:56 AM 55.4 °F 44.6 °F 67% 30.17 in 10.0 mi Calm Calm - N/A   Clear
10:16 AM 57.2 °F 44.6 °F 63% 30.16 in 10.0 mi Calm Calm - N/A   Clear
10:36 AM 57.2 °F 44.6 °F 63% 30.16 in 10.0 mi Calm Calm - N/A   Clear
10:56 AM 60.8 °F 46.4 °F 59% 30.16 in 10.0 mi Calm Calm - N/A   Clear
11:16 AM 60.8 °F 46.4 °F 59% 30.15 in 10.0 mi Calm Calm - N/A   Clear
11:36 AM 60.8 °F 46.4 °F 59% 30.15 in 10.0 mi Calm Calm - N/A   Clear
11:56 AM 62.6 °F 46.4 °F 55% 30.14 in 10.0 mi Calm Calm - N/A   Clear
12:16 PM 64.4 °F 46.4 °F 52% 30.14 in 10.0 mi Calm Calm - N/A   Clear
12:36 PM 62.6 °F 48.2 °F 59% 30.13 in 10.0 mi Calm Calm - N/A   Clear
12:56 PM 64.4 °F 48.2 °F 56% 30.13 in 10.0 mi Calm Calm - N/A   Clear
1:16 PM 62.6 °F 48.2 °F 59% 30.12 in 10.0 mi SSE 3.5 mph - N/A   Clear
1:36 PM 62.6 °F 50.0 °F 63% 30.11 in 10.0 mi SSW 5.8 mph - N/A   Clear
1:56 PM 62.6 °F 50.0 °F 63% 30.11 in 10.0 mi SSE 6.9 mph - N/A   Clear
2:16 PM 62.6 °F 51.8 °F 68% 30.10 in 10.0 mi South 3.5 mph - N/A   Clear
2:36 PM 62.6 °F 50.0 °F 63% 30.09 in 10.0 mi SSE 4.6 mph - N/A   Clear
2:56 PM 62.6 °F 51.8 °F 68% 30.09 in 10.0 mi South 5.8 mph - N/A   Clear
3:16 PM 62.6 °F 51.8 °F 68% 30.09 in 10.0 mi South 3.5 mph - N/A   Clear
3:36 PM 62.6 °F 51.8 °F 68% 30.09 in 10.0 mi South 6.9 mph - N/A   Clear
3:56 PM 64.4 °F 51.8 °F 64% 30.09 in 10.0 mi SW 4.6 mph - N/A   Clear
4:16 PM 62.6 °F 50.0 °F 63% 30.08 in 10.0 mi WSW 4.6 mph - N/A   Clear
4:36 PM 62.6 °F 50.0 °F 63% 30.08 in 10.0 mi WSW 4.6 mph - N/A   Clear
4:56 PM 62.6 °F 50.0 °F 63% 30.07 in 10.0 mi SW 4.6 mph - N/A   Clear
5:16 PM 62.6 °F 50.0 °F 63% 30.08 in 10.0 mi SW 4.6 mph - N/A   Clear
5:36 PM 62.6 °F 50.0 °F 63% 30.07 in 10.0 mi WSW 3.5 mph - N/A   Clear
5:56 PM 62.6 °F 50.0 °F 63% 30.07 in 10.0 mi West 3.5 mph - N/A   Clear
6:16 PM 62.6 °F 50.0 °F 63% 30.06 in 10.0 mi West 3.5 mph - N/A   Clear
6:36 PM 62.6 °F 50.0 °F 63% 30.06 in 10.0 mi Calm Calm - N/A   Clear
6:56 PM 60.8 °F 51.8 °F 72% 30.05 in 10.0 mi South 3.5 mph - N/A   Clear
7:16 PM 60.8 °F 50.0 °F 68% 30.04 in 10.0 mi South 3.5 mph - N/A   Clear
7:36 PM 60.8 °F 50.0 °F 68% 30.04 in 10.0 mi Calm Calm - N/A   Clear
7:56 PM 60.8 °F 50.0 °F 68% 30.03 in 10.0 mi Calm Calm - N/A   Clear
8:16 PM 60.8 °F 50.0 °F 68% 30.03 in 10.0 mi Calm Calm - N/A   Clear
8:36 PM 59.0 °F 51.8 °F 77% 30.03 in 10.0 mi Calm Calm - N/A   Partly Cloudy
8:56 PM 59.0 °F 51.8 °F 77% 30.02 in 10.0 mi Calm Calm - N/A   Scattered Clouds
9:16 PM 59.0 °F 50.0 °F 72% 30.02 in 10.0 mi Calm Calm - N/A   Scattered Clouds
9:36 PM 57.2 °F 50.0 °F 77% 30.02 in 10.0 mi Calm Calm - N/A   Mostly Cloudy
9:56 PM 57.2 °F 50.0 °F 77% 30.02 in 10.0 mi West 3.5 mph - N/A   Mostly Cloudy
10:16 PM 57.2 °F 50.0 °F 77% 30.02 in 10.0 mi Calm Calm - N/A   Mostly Cloudy
10:36 PM 57.2 °F 50.0 °F 77% 30.01 in 10.0 mi North 3.5 mph - N/A   Overcast
10:56 PM 57.2 °F 48.2 °F 72% 30.01 in 10.0 mi Calm Calm - N/A   Overcast
11:16 PM 57.2 °F 48.2 °F 72% 30.01 in 10.0 mi NW 3.5 mph - N/A   Overcast
11:36 PM 57.2 °F 46.4 °F 67% 30.00 in 10.0 mi SE 4.6 mph - N/A   Overcast
11:56 PM 55.4 °F 48.2 °F 77% 29.99 in 10.0 mi North 3.5 mph - N/A   Overcast